EWG5PC EDDL-ESGG

Flight info

Callsign EWG5PC
Flight time 1h 13m
Altitude 37000
Route MEVEL1Z MEVEL Y850 BASUM DCT DOSUR DCT KUVUS N607 MAKUR
Aircraft A319/M-SDE3FGHIRWY/LB1

Departure

Time 2026-05-07 16:45
Airport Düsseldorf Airport (EDDL)

Arrival

Time 2026-05-07 17:59
Airport Göteborg Landvetter Airport (ESGG)
Time Latitude Longitude Altitude Speed Heading
2026-05-07 16:26 51.28041 6.76368 128 ft 0 kts 197°
2026-05-07 16:37 51.28058 6.76376 123 ft 4 kts 197°
2026-05-07 16:37 51.28080 6.76387 122 ft 3 kts 198°
2026-05-07 16:37 51.28096 6.76402 125 ft 4 kts 276°
2026-05-07 16:38 51.28084 6.76428 123 ft 4 kts 327°
2026-05-07 16:38 51.28075 6.76437 123 ft 0 kts 327°
2026-05-07 16:41 51.28088 6.76423 124 ft 4 kts 327°
2026-05-07 16:42 51.28123 6.76378 128 ft 7 kts 306°
2026-05-07 16:42 51.28151 6.76301 126 ft 5 kts 306°
2026-05-07 16:42 51.28187 6.76250 125 ft 8 kts 321°
2026-05-07 16:42 51.28201 6.76172 126 ft 8 kts 251°
2026-05-07 16:43 51.28163 6.76091 124 ft 10 kts 232°
2026-05-07 16:43 51.28116 6.75994 126 ft 12 kts 232°
2026-05-07 16:43 51.28060 6.75878 128 ft 14 kts 232°
2026-05-07 16:43 51.27995 6.75741 129 ft 17 kts 233°
2026-05-07 16:44 51.27920 6.75582 127 ft 19 kts 233°
2026-05-07 16:44 51.27844 6.75414 125 ft 16 kts 250°
2026-05-07 16:44 51.27892 6.75299 123 ft 14 kts 332°
2026-05-07 16:44 51.27992 6.75286 123 ft 16 kts 24°
2026-05-07 16:45 51.28098 6.75489 125 ft 43 kts 52°
2026-05-07 16:45 51.28405 6.76127 127 ft 101 kts 52°
2026-05-07 16:45 51.28945 6.77256 132 ft 153 kts 51°
2026-05-07 16:45 51.29578 6.78566 756 ft 144 kts 51°
2026-05-07 16:46 51.30180 6.79844 1349 ft 146 kts 51°
2026-05-07 16:46 51.30828 6.81212 1697 ft 165 kts 51°
2026-05-07 16:46 51.31571 6.82777 2001 ft 188 kts 51°
2026-05-07 16:46 51.32409 6.84542 2338 ft 211 kts 52°
2026-05-07 16:47 51.33347 6.86527 2732 ft 236 kts 53°
2026-05-07 16:47 51.34360 6.88735 3435 ft 252 kts 51°
2026-05-07 16:47 51.35735 6.90483 4363 ft 258 kts 22°
2026-05-07 16:47 51.37491 6.91216 5061 ft 262 kts
2026-05-07 16:48 51.39293 6.91704 6081 ft 264 kts
2026-05-07 16:48 51.41118 6.92157 7026 ft 268 kts
2026-05-07 16:48 51.42978 6.92615 7903 ft 273 kts
2026-05-07 16:48 51.44878 6.93092 8756 ft 279 kts
2026-05-07 16:49 51.46806 6.93588 9599 ft 285 kts
2026-05-07 16:49 51.48763 6.94089 10319 ft 295 kts
2026-05-07 16:49 51.50915 6.94104 10594 ft 317 kts 352°
2026-05-07 16:49 51.53111 6.93465 10992 ft 332 kts 347°
2026-05-07 16:50 51.55403 6.92767 11683 ft 337 kts 348°
2026-05-07 16:50 51.57723 6.92090 12440 ft 341 kts 348°
2026-05-07 16:50 51.60111 6.91415 13183 ft 345 kts 348°
2026-05-07 16:50 51.62460 6.90762 13901 ft 349 kts 349°
2026-05-07 16:51 51.64871 6.90105 14549 ft 353 kts 350°
2026-05-07 16:51 51.67340 6.90000 15183 ft 359 kts
2026-05-07 16:51 51.69785 6.90924 15831 ft 364 kts 20°
2026-05-07 16:51 51.72036 6.92838 16483 ft 370 kts 34°
2026-05-07 16:52 51.73938 6.95643 17124 ft 374 kts 50°
2026-05-07 16:52 51.75515 6.99023 17773 ft 378 kts 53°
2026-05-07 16:52 51.77080 7.02453 18412 ft 382 kts 53°
2026-05-07 16:52 51.78657 7.05926 18968 ft 385 kts 53°
2026-05-07 16:53 51.80247 7.09424 19536 ft 388 kts 53°
2026-05-07 16:53 51.81856 7.12963 20118 ft 392 kts 53°
2026-05-07 16:53 51.83463 7.16506 20690 ft 395 kts 53°
2026-05-07 16:53 51.85093 7.20079 21255 ft 398 kts 52°
2026-05-07 16:54 51.86940 7.23425 21799 ft 401 kts 45°
2026-05-07 16:54 51.88876 7.26687 22345 ft 404 kts 45°
2026-05-07 16:54 51.90821 7.29962 22873 ft 407 kts 45°
2026-05-07 16:54 51.92790 7.33277 23391 ft 410 kts 45°
2026-05-07 16:55 51.94773 7.36627 23861 ft 413 kts 45°
2026-05-07 16:55 51.96766 7.40007 24313 ft 416 kts 45°
2026-05-07 16:55 51.98768 7.43410 24757 ft 418 kts 45°
2026-05-07 16:55 52.00781 7.46832 25210 ft 420 kts 45°
2026-05-07 16:56 52.02805 7.50277 25651 ft 422 kts 45°
2026-05-07 16:56 52.04838 7.53744 26113 ft 425 kts 46°
2026-05-07 16:56 52.08929 7.60752 26946 ft 430 kts 46°
2026-05-07 16:57 52.10997 7.64282 27360 ft 432 kts 45°
2026-05-07 16:57 52.13096 7.67807 27776 ft 435 kts 45°
2026-05-07 16:57 52.15219 7.71336 28062 ft 437 kts 45°
2026-05-07 16:57 52.17351 7.74861 28114 ft 436 kts 44°
2026-05-07 16:58 52.21585 7.81936 28109 ft 436 kts 45°
2026-05-07 16:58 52.25770 7.89107 28104 ft 436 kts 46°
2026-05-07 16:59 52.29938 7.96308 28102 ft 436 kts 46°
2026-05-07 16:59 52.34122 8.03520 28520 ft 439 kts 45°
2026-05-07 17:00 52.36226 8.07146 28903 ft 441 kts 45°
2026-05-07 17:00 52.38342 8.10797 29279 ft 443 kts 45°
2026-05-07 17:00 52.40468 8.14473 29679 ft 445 kts 46°
2026-05-07 17:00 52.42602 8.18173 30056 ft 448 kts 46°
2026-05-07 17:01 52.44746 8.21893 30389 ft 450 kts 46°
2026-05-07 17:01 52.46900 8.25631 30697 ft 452 kts 46°
2026-05-07 17:01 52.49063 8.29386 31009 ft 454 kts 46°
2026-05-07 17:01 52.51239 8.33163 31285 ft 457 kts 46°
2026-05-07 17:02 52.53393 8.36912 31573 ft 459 kts 46°
2026-05-07 17:02 52.55581 8.40727 31963 ft 458 kts 46°
2026-05-07 17:02 52.57763 8.44539 32400 ft 457 kts 46°
2026-05-07 17:02 52.59915 8.48318 32813 ft 456 kts 46°
2026-05-07 17:03 52.62094 8.52154 33248 ft 455 kts 46°
2026-05-07 17:03 52.64250 8.55953 33696 ft 453 kts 46°
2026-05-07 17:03 52.66388 8.59722 34214 ft 449 kts 46°
2026-05-07 17:03 52.68514 8.63473 34589 ft 448 kts 46°
2026-05-07 17:04 52.70647 8.67241 34876 ft 449 kts 46°
2026-05-07 17:04 52.72788 8.71008 35100 ft 452 kts 45°
2026-05-07 17:04 52.75166 8.74396 35360 ft 452 kts 35°
2026-05-07 17:04 52.77845 8.77085 35612 ft 452 kts 25°
2026-05-07 17:05 52.80766 8.78997 35874 ft 452 kts 15°
2026-05-07 17:05 52.83835 8.80087 36128 ft 451 kts
2026-05-07 17:05 52.86956 8.80666 36380 ft 452 kts
2026-05-07 17:05 52.90081 8.81240 36638 ft 452 kts
2026-05-07 17:06 52.93114 8.81804 36890 ft 453 kts
2026-05-07 17:06 52.96046 8.82350 37050 ft 454 kts
2026-05-07 17:06 53.02274 8.83510 37084 ft 453 kts
2026-05-07 17:07 53.08545 8.84685 37084 ft 453 kts
2026-05-07 17:07 53.14813 8.85859 37083 ft 453 kts
2026-05-07 17:08 53.21056 8.87047 37083 ft 453 kts
2026-05-07 17:08 53.27328 8.88240 37084 ft 454 kts
2026-05-07 17:09 53.33604 8.89430 37086 ft 454 kts
2026-05-07 17:09 53.39879 8.90623 37088 ft 454 kts
2026-05-07 17:10 53.46155 8.91809 37087 ft 454 kts
2026-05-07 17:10 53.52432 8.93009 37091 ft 454 kts
2026-05-07 17:11 53.57647 8.94022 37091 ft 454 kts
2026-05-07 17:11 53.63924 8.95238 37090 ft 454 kts
2026-05-07 17:12 53.71213 8.96631 37092 ft 454 kts
2026-05-07 17:12 53.76468 8.97639 37092 ft 453 kts
2026-05-07 17:13 53.82733 8.98844 37092 ft 453 kts
2026-05-07 17:13 53.88997 9.00073 37090 ft 453 kts
2026-05-07 17:14 53.95216 9.01292 37101 ft 453 kts
2026-05-07 17:14 54.01028 9.02442 37104 ft 452 kts
2026-05-07 17:15 54.07211 9.03655 37105 ft 451 kts
2026-05-07 17:15 54.13454 9.04883 37106 ft 451 kts
2026-05-07 17:16 54.19691 9.06103 37108 ft 451 kts
2026-05-07 17:16 54.25913 9.07331 37111 ft 450 kts
2026-05-07 17:17 54.32125 9.08570 37112 ft 449 kts
2026-05-07 17:17 54.38334 9.09810 37111 ft 449 kts
2026-05-07 17:18 54.44531 9.11054 37118 ft 448 kts
2026-05-07 17:18 54.50721 9.12298 37117 ft 448 kts
2026-05-07 17:19 54.56903 9.13543 37117 ft 447 kts
2026-05-07 17:19 54.63081 9.14780 37115 ft 447 kts
2026-05-07 17:20 54.69258 9.16022 37118 ft 447 kts
2026-05-07 17:20 54.75430 9.17278 37115 ft 447 kts
2026-05-07 17:21 54.81596 9.18544 37108 ft 447 kts
2026-05-07 17:21 54.87679 9.20666 37107 ft 447 kts 20°
2026-05-07 17:22 54.93468 9.24596 37111 ft 447 kts 21°
2026-05-07 17:22 54.99263 9.28540 37106 ft 447 kts 21°
2026-05-07 17:23 55.05053 9.32501 37106 ft 447 kts 21°
2026-05-07 17:23 55.10848 9.36489 37102 ft 447 kts 21°
2026-05-07 17:24 55.16636 9.40486 37120 ft 448 kts 21°
2026-05-07 17:24 55.22307 9.44409 37117 ft 448 kts 21°
2026-05-07 17:25 55.28060 9.48412 37118 ft 448 kts 21°
2026-05-07 17:25 55.33816 9.52423 37119 ft 448 kts 21°
2026-05-07 17:26 55.39612 9.56468 37117 ft 448 kts 21°
2026-05-07 17:26 55.45404 9.60520 37123 ft 448 kts 21°
2026-05-07 17:27 55.51193 9.64588 37122 ft 448 kts 21°
2026-05-07 17:27 55.56980 9.68668 37122 ft 448 kts 21°
2026-05-07 17:28 55.62768 9.72753 37118 ft 448 kts 21°
2026-05-07 17:28 55.68547 9.76864 37117 ft 448 kts 21°
2026-05-07 17:29 55.74328 9.80984 37118 ft 448 kts 21°
2026-05-07 17:29 55.80107 9.85118 37117 ft 448 kts 21°
2026-05-07 17:30 55.85883 9.89258 37113 ft 447 kts 21°
2026-05-07 17:30 55.91658 9.93411 37120 ft 447 kts 21°
2026-05-07 17:31 55.97427 9.97567 37121 ft 447 kts 21°
2026-05-07 17:31 56.03192 10.01744 37120 ft 447 kts 21°
2026-05-07 17:32 56.08952 10.05927 37122 ft 447 kts 21°
2026-05-07 17:32 56.14708 10.10106 37118 ft 446 kts 21°
2026-05-07 17:33 56.20466 10.14294 37128 ft 446 kts 21°
2026-05-07 17:33 56.26177 10.18478 37122 ft 446 kts 21°
2026-05-07 17:34 56.31923 10.22716 37113 ft 446 kts 21°
2026-05-07 17:34 56.37667 10.26957 37112 ft 446 kts 21°
2026-05-07 17:35 56.43410 10.31205 37125 ft 446 kts 21°
2026-05-07 17:35 56.49151 10.35463 37132 ft 446 kts 21°
2026-05-07 17:36 56.54894 10.39736 37120 ft 446 kts 21°
2026-05-07 17:36 56.60631 10.44026 37119 ft 446 kts 21°
2026-05-07 17:37 56.66366 10.48323 37058 ft 445 kts 21°
2026-05-07 17:37 56.69254 10.50492 36149 ft 454 kts 20°
2026-05-07 17:37 56.72189 10.52714 35273 ft 460 kts 22°
2026-05-07 17:38 56.74958 10.55642 34459 ft 461 kts 36°
2026-05-07 17:38 56.77446 10.59328 33481 ft 460 kts 38°
2026-05-07 17:38 56.79895 10.63038 32521 ft 456 kts 38°
2026-05-07 17:38 56.82323 10.66753 31599 ft 453 kts 38°
2026-05-07 17:39 56.84725 10.70449 30750 ft 449 kts 38°
2026-05-07 17:39 56.87095 10.74102 29899 ft 444 kts 38°
2026-05-07 17:39 56.89443 10.77712 28982 ft 439 kts 38°
2026-05-07 17:39 56.91768 10.81276 28112 ft 433 kts 38°
2026-05-07 17:40 56.94066 10.84801 27317 ft 428 kts 38°
2026-05-07 17:40 56.96307 10.88251 26872 ft 414 kts 38°
2026-05-07 17:40 56.98478 10.91599 26405 ft 403 kts 38°
2026-05-07 17:40 57.00598 10.94870 25974 ft 393 kts 38°
2026-05-07 17:41 57.02664 10.98063 25548 ft 384 kts 38°
2026-05-07 17:41 57.04684 11.01189 25139 ft 375 kts 38°
2026-05-07 17:41 57.06654 11.04248 24746 ft 367 kts 38°
2026-05-07 17:41 57.08596 11.07266 24361 ft 364 kts 38°
2026-05-07 17:42 57.10525 11.10262 23951 ft 362 kts 38°
2026-05-07 17:42 57.12444 11.13245 23527 ft 360 kts 38°
2026-05-07 17:42 57.14347 11.16212 23104 ft 357 kts 38°
2026-05-07 17:42 57.16233 11.19159 22700 ft 355 kts 38°
2026-05-07 17:43 57.18108 11.22095 22286 ft 353 kts 38°
2026-05-07 17:43 57.19975 11.25027 21862 ft 351 kts 38°
2026-05-07 17:43 57.21830 11.27940 21450 ft 349 kts 38°
2026-05-07 17:43 57.23676 11.30840 21010 ft 347 kts 38°
2026-05-07 17:44 57.25511 11.33725 20579 ft 346 kts 38°
2026-05-07 17:44 57.27339 11.36600 20152 ft 344 kts 38°
2026-05-07 17:44 57.29156 11.39465 19718 ft 343 kts 38°
2026-05-07 17:44 57.30967 11.42325 19279 ft 342 kts 38°
2026-05-07 17:45 57.32775 11.45186 18842 ft 341 kts 38°
2026-05-07 17:45 57.34577 11.48043 18405 ft 341 kts 39°
2026-05-07 17:45 57.36374 11.50890 17928 ft 339 kts 39°
2026-05-07 17:45 57.38159 11.53720 17490 ft 337 kts 39°
2026-05-07 17:46 57.39931 11.56533 17067 ft 334 kts 38°
2026-05-07 17:46 57.41693 11.59340 16626 ft 333 kts 39°
2026-05-07 17:46 57.43437 11.62128 16194 ft 331 kts 39°
2026-05-07 17:46 57.45177 11.64909 15766 ft 329 kts 39°
2026-05-07 17:47 57.46886 11.67638 15341 ft 328 kts 39°
2026-05-07 17:47 57.48611 11.70391 14916 ft 326 kts 39°
2026-05-07 17:47 57.50326 11.73135 14487 ft 325 kts 39°
2026-05-07 17:47 57.52033 11.75872 14065 ft 324 kts 39°
2026-05-07 17:48 57.53735 11.78606 13607 ft 323 kts 39°
2026-05-07 17:48 57.55421 11.81321 13180 ft 320 kts 39°
2026-05-07 17:48 57.57081 11.83996 12766 ft 317 kts 39°
2026-05-07 17:48 57.58714 11.86629 12349 ft 315 kts 39°
2026-05-07 17:49 57.60357 11.89282 11949 ft 313 kts 39°
2026-05-07 17:49 57.61997 11.91930 11540 ft 311 kts 39°
2026-05-07 17:49 57.63627 11.94568 11140 ft 309 kts 40°
2026-05-07 17:49 57.65247 11.97195 10739 ft 308 kts 40°
2026-05-07 17:50 57.66861 11.99814 10376 ft 306 kts 40°
2026-05-07 17:50 57.68443 12.02384 10203 ft 297 kts 40°
2026-05-07 17:50 57.69985 12.04892 10007 ft 291 kts 40°
2026-05-07 17:50 57.71481 12.07331 9777 ft 292 kts 40°
2026-05-07 17:51 57.73016 12.09839 9330 ft 293 kts 40°
2026-05-07 17:51 57.74547 12.12343 8880 ft 294 kts 40°
2026-05-07 17:51 57.76071 12.14842 8583 ft 289 kts 40°
2026-05-07 17:51 57.77578 12.17313 8150 ft 286 kts 40°
2026-05-07 17:52 57.79061 12.19743 7615 ft 284 kts 40°
2026-05-07 17:52 57.80568 12.22122 7110 ft 282 kts 35°
2026-05-07 17:52 57.82214 12.23902 6642 ft 280 kts 27°
2026-05-07 17:52 57.83895 12.25549 6486 ft 266 kts 28°
2026-05-07 17:53 57.85359 12.27531 6183 ft 257 kts 47°
2026-05-07 17:53 57.86362 12.30225 6004 ft 248 kts 66°
2026-05-07 17:53 57.86874 12.33243 5564 ft 242 kts 83°
2026-05-07 17:53 57.86840 12.36385 4979 ft 238 kts 104°
2026-05-07 17:54 57.86177 12.39164 4340 ft 232 kts 127°
2026-05-07 17:54 57.85029 12.41119 4087 ft 215 kts 150°
2026-05-07 17:54 57.83724 12.42080 3931 ft 197 kts 169°
2026-05-07 17:54 57.82389 12.42201 3759 ft 188 kts 187°
2026-05-07 17:55 57.81168 12.41591 3531 ft 179 kts 204°
2026-05-07 17:55 57.80055 12.40572 3294 ft 177 kts 206°
2026-05-07 17:55 57.78936 12.39549 3056 ft 176 kts 206°
2026-05-07 17:55 57.77838 12.38543 2819 ft 176 kts 207°
2026-05-07 17:56 57.76743 12.37539 2579 ft 175 kts 207°
2026-05-07 17:56 57.75647 12.36535 2335 ft 176 kts 208°
2026-05-07 17:56 57.74572 12.35552 2099 ft 166 kts 209°
2026-05-07 17:56 57.73566 12.34633 1874 ft 156 kts 209°
2026-05-07 17:57 57.72646 12.33792 1674 ft 143 kts 210°
2026-05-07 17:57 57.72053 12.33251 1534 ft 139 kts 209°
2026-05-07 17:57 57.70918 12.32213 1286 ft 135 kts 209°
2026-05-07 17:57 57.70084 12.31448 1101 ft 133 kts 211°
2026-05-07 17:58 57.69255 12.30688 916 ft 133 kts 211°
2026-05-07 17:58 57.68432 12.29940 742 ft 131 kts 211°
2026-05-07 17:58 57.67615 12.29199 570 ft 130 kts 210°
2026-05-07 17:58 57.66865 12.28506 513 ft 109 kts 205°
2026-05-07 17:59 57.66459 12.28139 511 ft 84 kts 206°
2026-05-07 17:59 57.66024 12.27741 508 ft 48 kts 206°
2026-05-07 17:59 57.65797 12.27661 505 ft 24 kts 177°
2026-05-07 17:59 57.65711 12.27772 505 ft 13 kts 91°
2026-05-07 18:00 57.65757 12.27846 505 ft 10 kts 24°
2026-05-07 18:00 57.65823 12.27906 506 ft 11 kts 26°
2026-05-07 18:00 57.65900 12.27977 507 ft 13 kts 27°
2026-05-07 18:00 57.65989 12.28058 508 ft 15 kts 25°
2026-05-07 18:01 57.66078 12.28139 509 ft 15 kts 26°
2026-05-07 18:01 57.66174 12.28228 510 ft 17 kts 26°
2026-05-07 18:01 57.66284 12.28328 511 ft 19 kts 26°
2026-05-07 18:01 57.66386 12.28420 511 ft 15 kts 26°
2026-05-07 18:02 57.66610 12.28622 512 ft 20 kts 26°
2026-05-07 18:02 57.66744 12.28746 513 ft 23 kts 26°
2026-05-07 18:02 57.66894 12.28882 513 ft 25 kts 25°
2026-05-07 18:03 57.67014 12.28989 514 ft 11 kts 25°
2026-05-07 18:03 57.67039 12.29092 514 ft 9 kts 113°
2026-05-07 18:03 57.67013 12.29183 516 ft 8 kts 115°
2026-05-07 18:03 57.66987 12.29293 516 ft 10 kts 115°
2026-05-07 18:04 57.66993 12.29366 516 ft 7 kts 35°
2026-05-07 18:04 57.67033 12.29407 516 ft 1 kts 52°
2026-05-07 18:04 57.67032 12.29433 516 ft 3 kts 104°
2026-05-07 18:04 57.67019 12.29481 516 ft 5 kts 116°
2026-05-07 18:05 57.67008 12.29524 516 ft 1 kts 115°
2026-05-07 18:05 57.67005 12.29533 516 ft 1 kts 116°
2026-05-07 18:05 57.67005 12.29536 516 ft 0 kts 115°